Year,Month,Day,Hour,Minute,Value (Times are PST for temperature in C)
2013,08,13,09,20,18.20
2013,08,13,09,21,18.20
2013,08,13,09,22,18.20
2013,08,13,09,23,18.30
2013,08,13,09,24,18.30
2013,08,13,09,25,18.30
2013,08,13,09,26,18.30
2013,08,13,09,27,18.30
2013,08,13,09,28,18.30
2013,08,13,09,29,18.30
2013,08,13,09,30,18.30
2013,08,13,09,31,18.30
2013,08,13,09,32,18.30
2013,08,13,09,33,18.20
2013,08,13,09,34,18.20
2013,08,13,09,35,18.30
2013,08,13,09,36,18.30
2013,08,13,09,37,18.30
2013,08,13,09,38,18.30
2013,08,13,09,39,18.30
2013,08,13,09,40,18.30
2013,08,13,09,41,18.40
2013,08,13,09,42,18.40
2013,08,13,09,43,18.50
2013,08,13,09,44,18.50
2013,08,13,09,45,18.60
2013,08,13,09,46,18.70
2013,08,13,09,47,18.80
2013,08,13,09,48,18.80
2013,08,13,09,49,18.90
2013,08,13,09,50,18.90
2013,08,13,09,51,18.90
2013,08,13,09,52,19.00
2013,08,13,09,53,19.00
2013,08,13,09,54,19.10
2013,08,13,09,55,19.10
2013,08,13,09,56,19.20
2013,08,13,09,57,19.30
2013,08,13,09,58,19.30
2013,08,13,09,59,19.30
2013,08,13,10,00,19.40
2013,08,13,10,01,19.40
2013,08,13,10,02,19.40
2013,08,13,10,03,19.40
2013,08,13,10,04,19.40
2013,08,13,10,05,19.50
2013,08,13,10,06,19.50
2013,08,13,10,07,19.50
2013,08,13,10,08,19.40
2013,08,13,10,09,19.30
2013,08,13,10,10,19.30
2013,08,13,10,11,19.30
2013,08,13,10,12,19.30
2013,08,13,10,13,19.30
2013,08,13,10,14,19.30
2013,08,13,10,15,19.30
2013,08,13,10,16,19.30
2013,08,13,10,17,19.20
2013,08,13,10,18,19.20
2013,08,13,10,19,19.20
2013,08,13,10,20,19.20
2013,08,13,10,21,19.20
2013,08,13,10,22,19.20
2013,08,13,10,23,19.20
2013,08,13,10,24,19.20
2013,08,13,10,25,19.10
2013,08,13,10,26,19.10
2013,08,13,10,27,19.10
2013,08,13,10,28,19.20
2013,08,13,10,29,19.20
2013,08,13,10,30,19.20
2013,08,13,10,31,19.10
2013,08,13,10,32,19.10
2013,08,13,10,33,19.20
2013,08,13,10,34,19.20
2013,08,13,10,35,19.20
2013,08,13,10,36,19.30
2013,08,13,10,37,19.30
2013,08,13,10,38,19.30
2013,08,13,10,39,19.30
2013,08,13,10,40,19.30
2013,08,13,10,41,19.30
2013,08,13,10,42,19.30
2013,08,13,10,43,19.40
2013,08,13,10,44,19.30
2013,08,13,10,45,19.30
2013,08,13,10,46,19.30
2013,08,13,10,47,19.30
2013,08,13,10,48,19.30
2013,08,13,10,49,19.30
2013,08,13,10,50,19.30
2013,08,13,10,51,19.30
2013,08,13,10,52,19.30
2013,08,13,10,53,19.30
2013,08,13,10,54,19.30
2013,08,13,10,55,19.20
2013,08,13,10,56,19.20
2013,08,13,10,57,19.10
2013,08,13,10,58,19.10
2013,08,13,10,59,19.10
2013,08,13,11,00,19.10
2013,08,13,11,01,19.10
2013,08,13,11,02,19.10
2013,08,13,11,03,19.10
2013,08,13,11,04,19.10
2013,08,13,11,05,19.10
2013,08,13,11,06,19.10
2013,08,13,11,07,19.10
2013,08,13,11,08,19.10
2013,08,13,11,09,19.10
2013,08,13,11,10,19.10
2013,08,13,11,11,19.10
2013,08,13,11,12,19.20
2013,08,13,11,13,19.20
2013,08,13,11,14,19.10
2013,08,13,11,15,19.10
2013,08,13,11,16,19.10
2013,08,13,11,17,19.10
2013,08,13,11,18,19.20
2013,08,13,11,19,19.20
2013,08,13,11,20,19.30
2013,08,13,11,21,19.30
2013,08,13,11,22,19.40
2013,08,13,11,23,19.50
2013,08,13,11,24,19.50
2013,08,13,11,25,19.50
2013,08,13,11,26,19.40
2013,08,13,11,27,19.40
2013,08,13,11,28,19.40
2013,08,13,11,29,19.40
2013,08,13,11,30,19.50
2013,08,13,11,31,19.60
2013,08,13,11,32,19.60
2013,08,13,11,33,19.50
2013,08,13,11,34,19.50
2013,08,13,11,35,19.50
2013,08,13,11,36,19.60
2013,08,13,11,37,19.60
2013,08,13,11,38,19.60
2013,08,13,11,39,19.60
2013,08,13,11,40,19.60
2013,08,13,11,41,19.60
2013,08,13,11,42,19.70
2013,08,13,11,43,19.70
2013,08,13,11,44,19.70
2013,08,13,11,45,19.60
2013,08,13,11,46,19.60
2013,08,13,11,47,19.50
2013,08,13,11,48,19.50
2013,08,13,11,49,19.40
2013,08,13,11,50,19.40
2013,08,13,11,51,19.40
2013,08,13,11,52,19.40
2013,08,13,11,53,19.40
2013,08,13,11,54,19.40
2013,08,13,11,55,19.50
2013,08,13,11,56,19.60
2013,08,13,11,57,19.60
2013,08,13,11,58,19.60
2013,08,13,11,59,19.60
2013,08,13,12,00,19.70
2013,08,13,12,01,19.80
2013,08,13,12,02,19.90
2013,08,13,12,03,20.00
2013,08,13,12,04,20.00
2013,08,13,12,05,20.10
2013,08,13,12,06,20.20
2013,08,13,12,07,20.20
2013,08,13,12,08,20.30
2013,08,13,12,09,20.30
2013,08,13,12,10,20.40
2013,08,13,12,11,20.50
2013,08,13,12,12,20.60
2013,08,13,12,13,20.70
2013,08,13,12,14,20.80
2013,08,13,12,15,20.90
2013,08,13,12,16,21.00
2013,08,13,12,17,21.10
2013,08,13,12,18,21.10
2013,08,13,12,19,21.10
2013,08,13,12,20,21.20
2013,08,13,12,21,21.20
2013,08,13,12,22,21.30
2013,08,13,12,23,21.40
2013,08,13,12,24,21.40
2013,08,13,12,25,21.50
2013,08,13,12,26,21.50
2013,08,13,12,27,21.60
2013,08,13,12,28,21.70
2013,08,13,12,29,21.70
2013,08,13,12,30,21.80
2013,08,13,12,31,21.80
2013,08,13,12,32,21.90
2013,08,13,12,33,21.90
2013,08,13,12,34,21.90
2013,08,13,12,35,21.90
2013,08,13,12,36,22.00
2013,08,13,12,37,22.00
2013,08,13,12,38,22.00
2013,08,13,12,39,22.10
2013,08,13,12,40,22.10
2013,08,13,12,41,22.10
2013,08,13,12,42,22.10
2013,08,13,12,43,22.30
2013,08,13,12,44,22.40
2013,08,13,12,45,22.30
2013,08,13,12,46,22.20
2013,08,13,12,47,22.10
2013,08,13,12,48,21.90
2013,08,13,12,49,21.80
2013,08,13,12,50,21.80
2013,08,13,12,51,21.70
2013,08,13,12,52,21.70
2013,08,13,12,53,21.70
2013,08,13,12,54,21.80
2013,08,13,12,55,21.90
2013,08,13,12,56,22.00
2013,08,13,12,57,22.20
2013,08,13,12,58,22.20
2013,08,13,12,59,22.30
2013,08,13,13,00,22.40
2013,08,13,13,01,22.40
2013,08,13,13,02,22.50
2013,08,13,13,03,22.50
2013,08,13,13,04,22.60
2013,08,13,13,05,22.60
2013,08,13,13,06,22.50
2013,08,13,13,07,22.40
2013,08,13,13,08,22.50
2013,08,13,13,09,22.40
2013,08,13,13,10,22.50
2013,08,13,13,11,22.50
2013,08,13,13,12,22.50
2013,08,13,13,13,22.40
2013,08,13,13,14,22.30
2013,08,13,13,15,22.40
2013,08,13,13,16,22.40
2013,08,13,13,17,22.50
2013,08,13,13,18,22.60
2013,08,13,13,19,22.70
2013,08,13,13,20,22.70
2013,08,13,13,21,22.80
2013,08,13,13,22,22.90
2013,08,13,13,23,23.00
2013,08,13,13,24,23.10
2013,08,13,13,25,23.10
2013,08,13,13,26,23.10
2013,08,13,13,27,23.00
2013,08,13,13,28,22.90
2013,08,13,13,29,22.70
2013,08,13,13,30,22.70
2013,08,13,13,31,22.60
2013,08,13,13,32,22.50
2013,08,13,13,33,22.50
2013,08,13,13,34,22.40
2013,08,13,13,35,22.50
2013,08,13,13,36,22.50
2013,08,13,13,37,22.50
2013,08,13,13,38,22.50
2013,08,13,13,39,22.60
2013,08,13,13,40,22.70
2013,08,13,13,41,22.70
2013,08,13,13,42,22.80
2013,08,13,13,43,22.90
2013,08,13,13,44,22.80
2013,08,13,13,45,22.70
2013,08,13,13,46,22.70
2013,08,13,13,47,22.70
2013,08,13,13,48,22.60
2013,08,13,13,49,22.60
2013,08,13,13,50,22.70
2013,08,13,13,51,22.80
2013,08,13,13,52,22.90
2013,08,13,13,53,23.00
2013,08,13,13,54,23.10
2013,08,13,13,55,23.10
2013,08,13,13,56,23.20
2013,08,13,13,57,23.20
2013,08,13,13,58,23.10
2013,08,13,13,59,23.00
2013,08,13,14,00,22.90
2013,08,13,14,01,22.90
2013,08,13,14,02,22.90
2013,08,13,14,03,22.90
2013,08,13,14,04,23.00
2013,08,13,14,05,23.10
2013,08,13,14,06,23.10
2013,08,13,14,07,23.10
2013,08,13,14,08,23.10
2013,08,13,14,09,23.20
2013,08,13,14,10,23.30
2013,08,13,14,11,23.40
2013,08,13,14,12,23.40
2013,08,13,14,13,23.30
2013,08,13,14,14,23.20
2013,08,13,14,15,23.20
2013,08,13,14,16,23.20
2013,08,13,14,17,23.20
2013,08,13,14,18,23.20
2013,08,13,14,19,23.10
2013,08,13,14,20,23.00
2013,08,13,14,21,22.90
2013,08,13,14,22,22.90
2013,08,13,14,23,23.00
2013,08,13,14,24,23.00
2013,08,13,14,25,23.20
2013,08,13,14,26,23.20
2013,08,13,14,27,23.30
2013,08,13,14,28,23.30
2013,08,13,14,29,23.30
2013,08,13,14,30,23.40
2013,08,13,14,31,23.40
2013,08,13,14,32,23.40
2013,08,13,14,33,23.50
2013,08,13,14,34,23.70
2013,08,13,14,35,23.80
2013,08,13,14,36,23.90
2013,08,13,14,37,24.10
2013,08,13,14,38,24.20
2013,08,13,14,39,24.40
2013,08,13,14,40,24.50
2013,08,13,14,41,24.50
2013,08,13,14,42,24.50
2013,08,13,14,43,24.40
2013,08,13,14,44,24.20
2013,08,13,14,45,24.10
2013,08,13,14,46,24.10
2013,08,13,14,47,24.00
2013,08,13,14,48,23.90
2013,08,13,14,49,23.90
2013,08,13,14,50,23.90
2013,08,13,14,51,23.90
2013,08,13,14,52,23.90
2013,08,13,14,53,23.90
2013,08,13,14,54,23.90
2013,08,13,14,55,23.90
2013,08,13,14,56,23.90
2013,08,13,14,57,23.90
2013,08,13,14,58,23.90
2013,08,13,14,59,24.00
2013,08,13,15,00,23.90
2013,08,13,15,01,23.90
2013,08,13,15,02,23.90
2013,08,13,15,03,24.00
2013,08,13,15,04,24.10
2013,08,13,15,05,24.30
2013,08,13,15,06,24.50
2013,08,13,15,07,24.70
2013,08,13,15,08,24.80
2013,08,13,15,09,24.90
2013,08,13,15,10,25.10
2013,08,13,15,11,25.20
2013,08,13,15,12,25.30
2013,08,13,15,13,25.40
2013,08,13,15,14,25.50
2013,08,13,15,15,25.40
2013,08,13,15,16,25.20
2013,08,13,15,17,25.00
2013,08,13,15,18,24.90
2013,08,13,15,19,24.80
2013,08,13,15,20,24.80
2013,08,13,15,21,24.80
2013,08,13,15,22,24.70
2013,08,13,15,23,24.70
2013,08,13,15,24,24.80
2013,08,13,15,25,24.70
2013,08,13,15,26,24.50
2013,08,13,15,27,24.40
2013,08,13,15,28,24.30
2013,08,13,15,29,24.30
2013,08,13,15,30,24.30
2013,08,13,15,31,24.30
2013,08,13,15,32,24.20
2013,08,13,15,33,24.20
2013,08,13,15,34,24.30
2013,08,13,15,35,24.30
2013,08,13,15,36,24.40
2013,08,13,15,37,24.40
2013,08,13,15,38,24.30
2013,08,13,15,39,24.20
2013,08,13,15,40,24.00
2013,08,13,15,41,23.90
2013,08,13,15,42,23.90
2013,08,13,15,43,23.90
2013,08,13,15,44,23.90
2013,08,13,15,45,23.90
2013,08,13,15,46,23.90
2013,08,13,15,47,23.80
2013,08,13,15,48,23.70
2013,08,13,15,49,23.50
2013,08,13,15,50,23.40
2013,08,13,15,51,23.30
2013,08,13,15,52,23.30
2013,08,13,15,53,23.40
2013,08,13,15,54,23.50
2013,08,13,15,55,23.50
2013,08,13,15,56,23.60
2013,08,13,15,57,23.70
2013,08,13,15,58,23.70
2013,08,13,15,59,23.60
2013,08,13,16,00,23.50
2013,08,13,16,01,23.50
2013,08,13,16,02,23.50
2013,08,13,16,03,23.50
2013,08,13,16,04,23.50
2013,08,13,16,05,23.50
2013,08,13,16,06,23.50
2013,08,13,16,07,23.60
2013,08,13,16,08,23.70
2013,08,13,16,09,23.80
2013,08,13,16,10,23.90
2013,08,13,16,11,24.00
2013,08,13,16,12,24.10
2013,08,13,16,13,24.10
2013,08,13,16,14,24.10
2013,08,13,16,15,24.10
2013,08,13,16,16,24.00
2013,08,13,16,17,24.00
2013,08,13,16,18,24.00
2013,08,13,16,19,24.00
2013,08,13,16,20,24.10
2013,08,13,16,21,24.10
2013,08,13,16,22,24.10
2013,08,13,16,23,24.10
2013,08,13,16,24,24.20
2013,08,13,16,25,24.20
2013,08,13,16,26,24.20
2013,08,13,16,27,24.20
2013,08,13,16,28,24.30
2013,08,13,16,29,24.40
2013,08,13,16,30,24.50
2013,08,13,16,31,24.50
2013,08,13,16,32,24.50
2013,08,13,16,33,24.40
2013,08,13,16,34,24.40
2013,08,13,16,35,24.40
2013,08,13,16,36,24.30
2013,08,13,16,37,24.30
2013,08,13,16,38,24.20
2013,08,13,16,39,24.30
2013,08,13,16,40,24.30
2013,08,13,16,41,24.30
2013,08,13,16,42,24.30
2013,08,13,16,43,24.40
2013,08,13,16,44,24.30
2013,08,13,16,45,24.40
2013,08,13,16,46,24.40
2013,08,13,16,47,24.20
2013,08,13,16,48,24.20
2013,08,13,16,49,24.20
2013,08,13,16,50,24.20
2013,08,13,16,51,24.20
2013,08,13,16,52,24.20
2013,08,13,16,53,24.20
2013,08,13,16,54,24.20
2013,08,13,16,55,24.20
2013,08,13,16,56,24.30
2013,08,13,16,57,24.40
2013,08,13,16,58,24.40
2013,08,13,16,59,24.40
2013,08,13,17,00,24.40
2013,08,13,17,01,24.30
2013,08,13,17,02,24.30
2013,08,13,17,03,24.30
2013,08,13,17,04,24.30
2013,08,13,17,05,24.20
2013,08,13,17,06,24.20
2013,08,13,17,07,24.20
2013,08,13,17,08,24.20
2013,08,13,17,09,24.10
2013,08,13,17,10,24.00
2013,08,13,17,11,23.90
2013,08,13,17,12,23.90
2013,08,13,17,13,23.90
2013,08,13,17,14,23.80
2013,08,13,17,15,23.80
2013,08,13,17,16,23.80
2013,08,13,17,17,23.80
2013,08,13,17,18,23.80
2013,08,13,17,19,23.70
2013,08,13,17,20,23.70
2013,08,13,17,21,23.70
2013,08,13,17,22,23.70
2013,08,13,17,23,23.60
2013,08,13,17,24,23.50
2013,08,13,17,25,23.40
2013,08,13,17,26,23.40
2013,08,13,17,27,23.40
2013,08,13,17,28,23.40
2013,08,13,17,29,23.40
2013,08,13,17,30,23.30
2013,08,13,17,31,23.30
2013,08,13,17,32,23.30
2013,08,13,17,33,23.20
2013,08,13,17,34,23.20
2013,08,13,17,35,23.10
2013,08,13,17,36,23.00
2013,08,13,17,37,23.00
2013,08,13,17,38,23.00
2013,08,13,17,39,23.10
2013,08,13,17,40,23.20
2013,08,13,17,41,23.20
2013,08,13,17,42,23.30
2013,08,13,17,43,23.40
2013,08,13,17,44,23.60
2013,08,13,17,45,23.70
2013,08,13,17,46,23.80
2013,08,13,17,47,23.80
2013,08,13,17,48,23.80
2013,08,13,17,49,23.80
2013,08,13,17,50,23.80
2013,08,13,17,51,23.90
2013,08,13,17,52,23.90
2013,08,13,17,53,23.80
2013,08,13,17,54,23.80
2013,08,13,17,55,23.70
2013,08,13,17,56,23.60
2013,08,13,17,57,23.50
2013,08,13,17,58,23.40
2013,08,13,17,59,23.40
2013,08,13,18,00,23.40
2013,08,13,18,01,23.50
2013,08,13,18,02,23.50
2013,08,13,18,03,23.60
2013,08,13,18,04,23.60
2013,08,13,18,05,23.60
2013,08,13,18,06,23.60
2013,08,13,18,07,23.60
2013,08,13,18,08,23.60
2013,08,13,18,09,23.60
2013,08,13,18,10,23.70
2013,08,13,18,11,23.70
2013,08,13,18,12,23.60
2013,08,13,18,13,23.50
2013,08,13,18,14,23.40
2013,08,13,18,15,23.30
2013,08,13,18,16,23.20
2013,08,13,18,17,23.10
2013,08,13,18,18,23.00
2013,08,13,18,19,22.90
2013,08,13,18,20,22.80
2013,08,13,18,21,22.70
2013,08,13,18,22,22.70
2013,08,13,18,23,22.60
2013,08,13,18,24,22.50
2013,08,13,18,25,22.50
2013,08,13,18,26,22.40
2013,08,13,18,27,22.40
2013,08,13,18,28,22.40
2013,08,13,18,29,22.40
2013,08,13,18,30,22.30
2013,08,13,18,31,22.30
2013,08,13,18,32,22.30
2013,08,13,18,33,22.40
2013,08,13,18,34,22.50
2013,08,13,18,35,22.50
2013,08,13,18,36,22.60
2013,08,13,18,37,22.70
2013,08,13,18,38,22.70
2013,08,13,18,39,22.80
2013,08,13,18,40,22.80
2013,08,13,18,41,22.80
2013,08,13,18,42,22.80
2013,08,13,18,43,22.80
2013,08,13,18,44,22.80
2013,08,13,18,45,22.80
2013,08,13,18,46,22.80
2013,08,13,18,47,22.80
2013,08,13,18,48,22.80
2013,08,13,18,49,22.80
2013,08,13,18,50,22.80
2013,08,13,18,51,22.80
